GW0560 Weather Reports


Display with metric or nautical units.
time (UTC)temp
F
wind
direction
speed
MPH
gust
MPH
rain 1hr
in
rain 24hr
in
rain mn
in
humidity
%
barometer
mb
20260502123056 36 360 3.0 10.0 0.00 0.00 0.00 78 1017.9
20260502121552 36 342 3.0 9.0 0.00 0.00 0.00 80 1017.9
20260502114558 34 304 2.0 5.0 0.00 0.00 0.00 82 1017.8
20260502113100 33 269 1.0 3.0 0.00 0.00 0.00 83 1017.7
20260502111555 33 0 0.0 2.0 0.00 0.00 0.00 85 1017.6
20260502110059 33 286 0.0 3.0 0.00 0.00 0.00 84 1017.5
20260502104553 33 0 1.0 2.0 0.00 0.00 0.00 83 1017.5
20260502103058 34 300 0.0 2.0 0.00 0.00 0.00 82 1017.4
20260502101556 34 316 1.0 4.0 0.00 0.00 0.00 83 1017.3
20260502080105 36 311 0.0 3.0 0.00 0.00 0.00 88 1016.6
20260502070100 37 0 0.0 2.0 0.00 0.00 0.00 85 1016.6
20260502064601 37 0 0.0 0.0 0.00 0.00 0.00 84 1016.7
20260502063053 37 0 0.0 3.0 0.00 0.00 0.00 84 1016.7
20260502061555 38 0 0.0 1.0 0.00 0.00 0.00 82 1016.8
20260502060051 37 0 1.0 2.0 0.00 0.00 0.00 81 1016.8
20260502054557 38 0 0.0 2.0 0.00 0.00 0.00 81 1016.9
20260502053055 38 195 0.0 3.0 0.00 0.00 0.00 82 1016.8
20260502051552 38 0 0.0 1.0 0.00 0.00 0.00 80 1016.8
20260502050050 38 0 0.0 2.0 0.00 0.00 0.00 79 1016.8
20260502044552 39 0 0.0 1.0 0.00 0.00 0.00 78 1016.7
20260502043052 39 0 0.0 2.0 0.00 0.00 0.00 78 1016.5
20260502041553 39 0 0.0 3.0 0.00 0.00 0.00 76 1016.5
20260502040106 40 0 0.0 2.0 0.00 0.00 0.00 75 1016.2
20260502034556 40 0 0.0 3.0 0.00 0.00 0.00 73 1016.0
20260502033054 41 0 0.0 5.0 0.00 0.00 0.00 69 1016.3
20260502031612 41 339 1.0 3.0 0.00 0.00 0.00 61 1016.1
20260502030100 41 318 6.0 10.0 0.00 0.00 0.00 56 1016.0
20260502024553 41 333 2.0 6.0 0.00 0.00 0.00 56 1015.9
20260502023055 41 304 3.0 8.0 0.00 0.00 0.00 56 1015.9
20260502021555 42 360 4.0 11.0 0.00 0.00 0.00 55 1015.8
20260502020110 42 346 4.0 10.0 0.00 0.00 0.00 55 1015.6
20260502014554 42 322 3.0 9.0 0.00 0.00 0.00 57 1015.5
20260502013058 41 31 3.0 7.0 0.00 0.00 0.00 59 1015.5
20260502011557 41 340 2.0 5.0 0.00 0.00 0.00 59 1015.3
20260502010052 42 0 3.0 12.0 0.00 0.00 0.00 62 1015.2
20260502004558 42 350 5.0 11.0 0.00 0.00 0.00 58 1015.1
20260502003129 43 340 3.0 10.0 0.00 0.00 0.00 58 1015.1
20260502001625 43 360 2.0 9.0 0.00 0.00 0.00 60 1014.9
20260502000051 44 11 5.0 10.0 0.00 0.00 0.00 57 1014.7
20260501234550 44 334 4.0 9.0 0.00 0.00 0.00 55 1014.6
20260501233050 44 308 4.0 8.0 0.00 0.00 0.00 55 1014.5
20260501231550 45 337 2.0 11.0 0.00 0.00 0.00 56 1014.5
20260501230049 45 298 3.0 8.0 0.00 0.00 0.00 55 1014.4
20260501224602 45 242 2.0 6.0 0.00 0.00 0.00 59 1014.4
20260501223050 44 217 2.0 5.0 0.00 0.00 0.00 59 1014.5
20260501221556 44 306 1.0 4.0 0.00 0.00 0.00 60 1014.5
20260501220053 45 320 0.0 2.0 0.00 0.00 0.00 60 1014.4
20260501214557 44 0 1.0 5.0 0.00 0.00 0.00 62 1014.3
20260501213056 45 12 1.0 8.0 0.00 0.00 0.00 62 1014.3
20260501211601 44 0 2.0 7.0 0.00 0.00 0.00 61 1014.3
20260501210100 44 267 4.0 12.0 0.00 0.00 0.00 60 1014.2
20260501204556 44 268 6.0 10.0 0.00 0.00 0.00 59 1014.1
20260501203102 44 306 4.0 9.0 0.00 0.00 0.00 58 1014.1
20260501201553 44 300 3.0 8.0 0.00 0.00 0.00 58 1014.2
20260501200055 44 276 3.0 8.0 0.00 0.00 0.00 59 1014.0
20260501194548 44 260 2.0 10.0 0.00 0.00 0.00 59 1014.1
20260501193048 44 0 2.0 9.0 0.00 0.00 0.00 61 1014.1
20260501191549 44 355 6.0 12.0 0.00 0.00 0.00 60 1014.0
20260501190057 45 329 9.0 17.0 0.00 0.00 0.00 58 1013.8
20260501184550 45 320 2.0 9.0 0.00 0.00 0.00 52 1013.6
20260501183057 46 325 3.0 10.0 0.00 0.00 0.00 55 1013.6
20260501181556 45 36 1.0 8.0 0.00 0.00 0.00 59 1013.7
20260501180053 44 310 5.0 13.0 0.00 0.00 0.00 59 1013.6
20260501174552 45 318 6.0 10.0 0.00 0.00 0.00 58 1013.8
20260501173102 45 338 6.0 11.0 0.00 0.00 0.00 59 1013.7
20260501171555 45 281 1.0 12.0 0.00 0.00 0.00 60 1013.8
20260501170053 45 337 5.0 13.0 0.00 0.00 0.00 60 1013.8
20260501164605 44 304 5.0 12.0 0.00 0.00 0.00 62 1013.8
20260501163051 44 341 2.0 13.0 0.00 0.00 0.00 63 1013.9
20260501161601 44 44 3.0 12.0 0.00 0.00 0.00 62 1013.9
20260501160051 44 22 6.0 12.0 0.00 0.00 0.00 60 1013.8
20260501154554 44 9 3.0 13.0 0.00 0.00 0.00 65 1013.8
20260501153104 44 5 5.0 11.0 0.00 0.00 0.00 66 1013.8
20260501151556 44 340 5.0 12.0 0.00 0.00 0.00 70 1013.8
20260501150051 44 335 3.0 9.0 0.00 0.00 0.00 71 1013.8
20260501144556 43 340 4.0 9.0 0.00 0.00 0.00 71 1013.9
20260501143054 43 333 5.0 9.0 0.00 0.00 0.00 72 1013.8